Lima, OH

1:07 AM EDT on June 24, 2017 (GMT -0400)
Lima Allen County

Weather History for KAOH - April, 2014

Change the Weather History Date:

Thursday, April 3, 2014

  Actual Average (KFDY) Record (KFDY)
Temperature  
Mean Temperature 42 °F -  
Max Temperature 46 °F 53 °F 80 °F (2007)
Min Temperature 39 °F 34 °F 21 °F (1954)
Degree Days  
Heating Degree Days 22    
Moisture  
Dew Point 39 °F    
Average Humidity 89    
Maximum Humidity 100    
Minimum Humidity 50    
Precipitation  
Precipitation 1.69 in - - ()
Sea Level Pressure  
Sea Level Pressure 29.87 in    
Wind  
Wind Speed 13 mph (ENE)    
Max Wind Speed 25 mph    
Max Gust Speed 30 mph    
Visibility 4 miles    
Events Fog , Rain , Thunderstorm    
Averages and records for this station are not official NWS values.
T = Trace of Precipitation, MM = Missing Value Source: NWS Daily Summary

Daily Weather History Graph

Daily Weather History Graph

Search for Another Location

Airport or City:

Trip Planner

Search our weather history database for the weather conditions in past years. The results will help you decide how hot, cold, wet, or windy it might be!

Date:

Astronomy

Apr. 03, 2014 Rise Set
Actual Time 7:16 AM EDT 8:02 PM EDT
Civil Twilight 6:48 AM EDT 8:30 PM EDT
Nautical Twilight 6:15 AM EDT 9:03 PM EDT
Astronomical Twilight 5:42 AM EDT 9:37 PM EDT
Moon 9:43 AM EDT (4/3) No Moon Set
Length of Visible Light 13h 42m
Length of Day
12h 46m
Waxing Crescent, 17% of the Moon is Illuminated
Apr 3
Waxing Crescent
Apr 7
First Quarter
Apr 15
Full
Apr 22
Last Quarter
Apr 29
New

Hourly Weather History & Observations

Time (EDT) Temp. Windchill Dew Point Humidity Pressure Visibility Wind Dir Wind Speed Gust Speed Precip Events Conditions
12:53 AM 46.9 °F - 30.9 °F 54% 30.08 in 10.0 mi ENE 10.4 mph - N/A   Overcast
1:53 AM 46.9 °F - 28.9 °F 50% 30.07 in 10.0 mi ENE 15.0 mph - N/A   Overcast
2:53 AM 45.0 °F 39.3 °F 30.9 °F 58% 30.06 in 10.0 mi East 11.5 mph - 0.00 in Rain Light Rain
3:53 AM 42.1 °F 36.1 °F 35.1 °F 76% 30.06 in 10.0 mi East 10.4 mph - 0.03 in Rain Light Rain
4:53 AM 41.0 °F 33.9 °F 36.0 °F 82% 30.05 in 6.0 mi ENE 12.7 mph - 0.14 in Rain Light Rain
5:53 AM 41.0 °F 33.1 °F 36.0 °F 82% 30.03 in 9.0 mi ENE 15.0 mph - 0.04 in   Overcast
6:53 AM 41.0 °F 32.8 °F 36.0 °F 82% 30.02 in 7.0 mi ENE 16.1 mph 24.2 mph 0.02 in Rain Rain
7:53 AM 39.9 °F 32.9 °F 37.0 °F 89% 30.03 in 6.0 mi ENE 11.5 mph - 0.07 in Rain Light Rain
8:22 AM 39.9 °F 31.1 °F 37.0 °F 89% 30.00 in 4.0 mi ENE 17.3 mph - 0.01 in Rain Light Rain
8:53 AM 39.9 °F 31.1 °F 36.0 °F 86% 29.99 in 5.0 mi East 17.3 mph - 0.02 in Rain Light Rain
9:41 AM 39.9 °F 30.8 °F 37.0 °F 89% 29.97 in 3.0 mi East 18.4 mph 23.0 mph 0.07 in Rain Rain
9:53 AM 39.9 °F 31.1 °F 37.0 °F 89% 29.98 in 3.0 mi East 17.3 mph - 0.10 in Rain Rain
10:11 AM 39.9 °F 32.5 °F 37.0 °F 89% 29.96 in 4.0 mi East 12.7 mph - 0.05 in Rain Rain
10:43 AM 41.0 °F 32.8 °F 37.0 °F 86% 29.94 in 3.0 mi East 16.1 mph - 0.16 in Rain Rain
10:53 AM 39.9 °F 31.4 °F 37.9 °F 93% 29.95 in 2.5 mi East 16.1 mph - 0.20 in Rain Rain
10:58 AM 41.0 °F 32.5 °F 37.9 °F 89% 29.92 in 3.0 mi East 17.3 mph - 0.02 in Rain , Thunderstorm Rain
11:12 AM 41.0 °F 32.2 °F 37.9 °F 89% 29.90 in 2.5 mi East 18.4 mph 29.9 mph 0.07 in Rain Rain
11:42 AM 41.0 °F 31.9 °F 37.9 °F 89% 29.88 in 3.0 mi East 19.6 mph - 0.19 in Rain Light Rain
11:53 AM 41.0 °F 32.2 °F 37.9 °F 89% 29.91 in 3.0 mi East 18.4 mph 26.5 mph 0.22 in Rain Rain
12:00 PM 41.0 °F 32.8 °F 37.9 °F 89% 29.91 in 3.0 mi East 16.1 mph 24.2 mph 0.02 in Rain Rain
12:09 PM 41.0 °F 33.9 °F 39.0 °F 93% 29.91 in 2.5 mi East 12.7 mph - 0.05 in Rain Rain
12:15 PM 41.0 °F 33.9 °F 39.0 °F 93% 29.90 in 1.8 mi East 12.7 mph - 0.09 in Rain Rain
12:51 PM 41.0 °F 33.5 °F 39.2 °F 93% 29.89 in 1.2 mi NE 13.8 mph - 0.35 in Rain Heavy Rain
12:53 PM 41.0 °F 34.7 °F 39.0 °F 93% 29.91 in 1.2 mi NE 10.4 mph - 0.37 in Rain Heavy Rain
1:01 PM 41.0 °F 35.2 °F 39.0 °F 93% 29.89 in 1.2 mi NE 9.2 mph - 0.05 in Rain Heavy Rain
1:53 PM 41.0 °F 33.1 °F 39.9 °F 96% 29.87 in 2.0 mi ENE 15.0 mph - 0.35 in Rain Rain
2:02 PM 41.0 °F 32.2 °F 39.0 °F 93% 29.84 in 2.0 mi East 18.4 mph - 0.03 in Rain Rain
2:17 PM 42.1 °F 33.1 °F 39.9 °F 92% 29.80 in 2.0 mi East 20.7 mph - 0.09 in Rain Rain
2:32 PM 42.1 °F 32.1 °F 39.9 °F 92% 29.77 in 4.0 mi East 25.3 mph 29.9 mph 0.10 in Rain Light Rain
2:53 PM 42.1 °F 33.1 °F 39.9 °F 92% 29.79 in 4.0 mi East 20.7 mph 28.8 mph 0.11 in Rain Light Rain
3:53 PM 44.1 °F 39.5 °F 42.1 °F 93% 29.79 in 6.0 mi ENE 8.1 mph - 0.01 in   Overcast
4:53 PM 44.1 °F 37.1 °F 42.1 °F 93% 29.73 in 5.0 mi ENE 15.0 mph - N/A   Overcast
5:08 PM 44.1 °F 38.6 °F 42.1 °F 93% 29.73 in 4.0 mi ENE 10.4 mph - N/A   Overcast
5:53 PM 44.1 °F 39.0 °F 42.1 °F 93% 29.78 in 4.0 mi ENE 9.2 mph - N/A   Overcast
6:08 PM 43.0 °F 37.7 °F 42.1 °F 97% 29.75 in 2.0 mi NE 9.2 mph - 0.00 in Rain Light Rain
6:15 PM 43.0 °F 37.2 °F 41.0 °F 93% 29.75 in 1.8 mi NE 10.4 mph - 0.00 in Rain Light Rain
6:22 PM 42.1 °F 35.7 °F 41.0 °F 96% 29.75 in 2.5 mi NE 11.5 mph - 0.00 in   Overcast
6:53 PM 43.0 °F 36.0 °F 41.0 °F 93% 29.75 in 2.5 mi ENE 13.8 mph - 0.00 in   Overcast
7:44 PM 43.0 °F 38.2 °F 41.0 °F 93% 29.76 in 1.8 mi ENE 8.1 mph - N/A   Overcast
7:53 PM 43.0 °F 38.2 °F 42.1 °F 97% 29.78 in 2.0 mi ENE 8.1 mph - N/A   Overcast
8:16 PM 43.0 °F 38.8 °F 42.1 °F 97% 29.77 in 2.0 mi ENE 6.9 mph - N/A   Overcast
8:32 PM 43.0 °F 40.3 °F 42.1 °F 97% 29.77 in 1.8 mi NE 4.6 mph - N/A   Overcast
8:53 PM 43.0 °F 40.3 °F 42.1 °F 97% 29.79 in 1.5 mi ENE 4.6 mph - 0.00 in   Overcast
9:29 PM 45.0 °F 42.6 °F 44.1 °F 97% 29.77 in 2.0 mi ESE 4.6 mph - 0.01 in Rain Light Rain
9:53 PM 45.0 °F 42.6 °F 44.1 °F 97% 29.77 in 2.0 mi NE 4.6 mph - 0.01 in   Overcast
10:17 PM 44.1 °F 41.5 °F 43.0 °F 96% 29.76 in 1.5 mi ENE 4.6 mph - N/A   Overcast
10:34 PM 44.1 °F 42.5 °F 43.0 °F 96% 29.76 in 1.5 mi East 3.5 mph - N/A   Overcast
11:51 PM 41.0 °F 39.0 °F 39.2 °F 93% 29.73 in 0.5 mi NE 3.5 mph - N/A Fog Fog
11:53 PM 39.9 °F 35.8 °F 39.9 °F 100% 29.75 in 0.8 mi NE 5.8 mph - N/A   Mist